Total_Precipitation_Accumulation
0.88 0.91 0.89 0.72 0.70 0.67 0.62 0.59 0.61 0.65 0.70 0.85 0.95 0.98 0.92 0.85 0.72 0.62 0.58 0.59 0.57 0.65 0.79 0.72 0.79 0.69 0.71 0.71 0.63 0.77 0.78 0.65 0.57 0.40 0.22 0.08 0.04 0.06 0.10 0.15 0.16 0.11 0.07
0.70 0.73 0.69 0.63 0.66 0.82 0.91 0.87 0.81 0.82 0.85 1.11 1.46 1.65 1.71 1.51 1.17 0.96 0.86 0.77 0.72 0.75 0.78 0.81 0.72 0.69 0.71 0.73 0.74 0.81 0.70 0.57 0.55 0.53 0.44 0.22 0.13 0.12 0.18 0.30 0.31 0.21 0.11
0.38 0.45 0.48 0.54 0.60 0.70 0.71 0.66 0.65 0.72 0.78 0.95 1.23 1.44 1.70 1.70 1.45 1.17 1.04 0.95 0.86 0.77 0.76 0.76 0.71 0.71 0.72 0.80 0.88 0.77 0.68 0.58 0.57 0.59 0.64 0.49 0.32 0.18 0.08 0.11 0.18 0.22 0.19
0.35 0.43 0.46 0.47 0.48 0.50 0.50 0.52 0.60 0.71 0.83 0.97 1.16 1.41 1.67 1.66 1.57 1.46 1.26 1.07 0.90 0.76 0.71 0.68 0.66 0.68 0.70 0.81 0.77 0.75 0.83 0.80 0.73 0.74 0.75 0.70 0.60 0.47 0.18 0.07 0.13 0.21 0.24
0.33 0.38 0.43 0.46 0.47 0.50 0.55 0.60 0.69 0.81 0.92 1.02 1.11 1.27 1.63 1.63 1.46 1.31 1.15 1.02 0.88 0.79 0.74 0.69 0.66 0.64 0.66 0.74 0.75 0.87 0.87 0.88 0.86 0.81 0.77 0.79 0.77 0.70 0.52 0.24 0.18 0.20 0.20
0.36 0.42 0.48 0.51 0.48 0.51 0.57 0.61 0.64 0.71 0.78 0.83 0.90 0.94 1.10 1.18 1.11 1.04 0.95 0.86 0.77 0.72 0.71 0.67 0.62 0.61 0.64 0.73 0.74 0.74 0.74 0.76 0.80 0.74 0.68 0.72 0.71 0.71 0.72 0.53 0.41 0.34 0.29
0.37 0.40 0.45 0.48 0.51 0.52 0.53 0.53 0.53 0.55 0.54 0.53 0.53 0.55 0.65 0.79 0.83 0.82 0.81 0.77 0.69 0.61 0.58 0.59 0.58 0.58 0.62 0.70 0.70 0.65 0.65 0.67 0.68 0.63 0.63 0.65 0.65 0.69 0.79 0.84 0.73 0.60 0.43
0.31 0.30 0.33 0.37 0.41 0.44 0.47 0.47 0.46 0.47 0.48 0.48 0.49 0.46 0.49 0.61 0.72 0.76 0.75 0.70 0.61 0.50 0.45 0.46 0.50 0.52 0.54 0.58 0.67 0.68 0.68 0.64 0.62 0.58 0.68 0.67 0.62 0.60 0.69 0.84 0.92 0.87 0.68
0.31 0.28 0.28 0.29 0.30 0.31 0.33 0.37 0.41 0.47 0.51 0.53 0.52 0.47 0.50 0.61 0.67 0.71 0.75 0.78 0.74 0.66 0.57 0.53 0.53 0.54 0.56 0.62 0.70 0.78 0.76 0.74 0.72 0.75 0.77 0.69 0.60 0.56 0.64 0.83 0.94 0.98 0.83
0.31 0.26 0.22 0.20 0.19 0.22 0.28 0.40 0.52 0.56 0.50 0.47 0.44 0.41 0.49 0.65 0.67 0.61 0.60 0.68 0.72 0.70 0.64 0.60 0.58 0.58 0.59 0.60 0.63 0.74 0.78 0.79 0.85 0.85 0.83 0.81 0.76 0.74 0.76 0.85 0.94 0.98 0.93
0.30 0.26 0.20 0.17 0.17 0.20 0.25 0.36 0.43 0.50 0.48 0.42 0.37 0.35 0.37 0.44 0.50 0.51 0.50 0.53 0.57 0.60 0.57 0.51 0.46 0.43 0.39 0.38 0.40 0.46 0.51 0.55 0.60 0.59 0.64 0.74 0.81 0.81 0.81 0.82 0.82 0.89 0.93
0.21 0.19 0.18 0.18 0.19 0.22 0.26 0.31 0.34 0.36 0.39 0.38 0.36 0.36 0.35 0.33 0.31 0.33 0.35 0.36 0.37 0.37 0.34 0.29 0.25 0.22 0.20 0.19 0.21 0.22 0.27 0.33 0.37 0.41 0.46 0.50 0.54 0.59 0.64 0.67 0.69 0.76 0.87
0.22 0.21 0.20 0.20 0.22 0.26 0.30 0.33 0.38 0.38 0.40 0.38 0.37 0.40 0.38 0.35 0.28 0.25 0.24 0.23 0.21 0.19 0.17 0.16 0.14 0.12 0.10 0.10 0.12 0.14 0.16 0.19 0.22 0.23 0.23 0.21 0.25 0.31 0.36 0.43 0.50 0.58 0.80
0.18 0.19 0.21 0.22 0.23 0.26 0.27 0.28 0.33 0.38 0.43 0.47 0.54 0.53 0.47 0.41 0.33 0.26 0.22 0.18 0.15 0.13 0.12 0.12 0.12 0.11 0.11 0.12 0.13 0.14 0.14 0.14 0.13 0.11 0.09 0.08 0.11 0.17 0.24 0.32 0.36 0.41 0.53
0.19 0.19 0.22 0.24 0.25 0.25 0.26 0.26 0.28 0.33 0.36 0.41 0.51 0.55 0.49 0.42 0.35 0.27 0.20 0.17 0.14 0.10 0.10 0.12 0.12 0.12 0.12 0.11 0.12 0.15 0.14 0.14 0.13 0.10 0.06 0.06 0.08 0.09 0.10 0.16 0.23 0.29 0.43
0.19 0.17 0.17 0.17 0.20 0.20 0.19 0.20 0.22 0.23 0.26 0.29 0.35 0.41 0.41 0.37 0.31 0.24 0.15 0.11 0.08 0.07 0.07 0.08 0.08 0.06 0.04 0.03 0.03 0.07 0.08 0.08 0.08 0.07 0.05 0.03 0.05 0.09 0.12 0.14 0.15 0.15 0.23
0.11 0.10 0.11 0.11 0.10 0.09 0.10 0.15 0.17 0.19 0.25 0.27 0.28 0.33 0.38 0.36 0.27 0.16 0.12 0.09 0.07 0.07 0.08 0.06 0.04 0.02 0.01 0.01 0.01 0.01 0.03 0.03 0.02 0.02 0.02 0.01 0.03 0.07 0.10 0.10 0.08 0.08 0.09
0.03 0.03 0.03 0.04 0.04 0.04 0.08 0.13 0.17 0.23 0.28 0.30 0.31 0.33 0.34 0.33 0.27 0.19 0.15 0.13 0.12 0.11 0.11 0.08 0.04 0.00 0.00 0.00 0.00 0.00 0.01 0.01 0.00 0.00 0.00 0.00 0.00 0.01 0.02 0.06 0.07 0.02 0.01
0.01 0.01 0.01 0.02 0.03 0.06 0.11 0.18 0.26 0.32 0.33 0.33 0.31 0.30 0.33 0.36 0.35 0.28 0.19 0.14 0.13 0.12 0.12 0.10 0.06 0.01 0.00 0.00 0.00 0.00 0.01 0.01 0.00 0.00 0.00 0.00 0.00 0.00 0.00 0.03 0.04 0.02 0.01
0.01 0.01 0.02 0.04 0.07 0.10 0.13 0.20 0.29 0.34 0.36 0.33 0.28 0.26 0.27 0.30 0.35 0.33 0.23 0.16 0.14 0.11 0.08 0.08 0.07 0.03 0.01 0.00 0.00 0.00 0.01 0.01 0.00 0.00 0.00 0.00 0.00 0.00 0.00 0.00 0.01 0.01 0.01
0.01 0.02 0.04 0.07 0.08 0.09 0.12 0.18 0.26 0.31 0.29 0.24 0.23 0.25 0.27 0.29 0.32 0.33 0.27 0.22 0.18 0.14 0.11 0.09 0.08 0.07 0.02 0.00 0.00 0.00 0.01 0.01 0.00 0.00 0.00 0.00 0.00 0.00 0.00 0.00 0.00 0.00 0.00
0.01 0.03 0.07 0.10 0.09 0.07 0.10 0.13 0.17 0.20 0.20 0.19 0.21 0.23 0.26 0.22 0.26 0.36 0.37 0.37 0.30 0.18 0.15 0.13 0.12 0.09 0.05 0.01 0.00 0.00 0.00 0.00 0.01 0.00 0.00 0.00 0.00 0.00 0.00 0.00 0.00 0.00 0.00
0.03 0.05 0.08 0.10 0.12 0.14 0.13 0.12 0.11 0.11 0.13 0.18 0.25 0.24 0.23 0.24 0.27 0.29 0.30 0.28 0.22 0.15 0.12 0.11 0.11 0.10 0.08 0.04 0.00 0.00 0.00 0.00 0.01 0.00 0.00 0.00 0.00 0.00 0.00 0.00 0.00 0.00 0.00
0.05 0.08 0.12 0.17 0.21 0.23 0.18 0.11 0.07 0.08 0.12 0.22 0.31 0.33 0.30 0.27 0.23 0.23 0.22 0.20 0.16 0.11 0.11 0.10 0.09 0.08 0.07 0.04 0.02 0.01 0.00 0.00 0.00 0.00 0.00 0.00 0.00 0.00 0.00 0.00 0.00 0.00 0.00
0.07 0.10 0.16 0.21 0.22 0.25 0.23 0.13 0.08 0.09 0.14 0.19 0.23 0.26 0.30 0.34 0.32 0.26 0.26 0.27 0.24 0.16 0.16 0.16 0.13 0.11 0.08 0.03 0.02 0.01 0.01 0.01 0.00 0.00 0.01 0.01 0.01 0.01 0.00 0.00 0.00 0.00 0.00
0.09 0.13 0.18 0.23 0.26 0.29 0.25 0.15 0.10 0.12 0.18 0.21 0.23 0.26 0.27 0.28 0.28 0.26 0.17 0.14 0.16 0.12 0.13 0.14 0.12 0.11 0.07 0.04 0.03 0.01 0.01 0.01 0.01 0.00 0.01 0.01 0.01 0.00 0.00 0.00 0.00 0.00 0.00